Minneapolis Flying Cloud, MN

10:44 AM CST on November 18, 2019 (GMT -0600)
Flying Cloud

Weather History for KFCM - September, 2019

Change the Weather History Date:

Sunday, September 15, 2019

  Actual Average Record
Temperature  
Mean Temperature 70 °F -  
Max Temperature 82 °F 72 °F 93 °F (2018)
Min Temperature 57 °F 52 °F 33 °F (2007)
Cooling Degree Days 4    
Growing Degree Days 20 (Base 50)    
Moisture  
Dew Point 61 °F    
Average Humidity 86    
Maximum Humidity 100    
Minimum Humidity 54    
Precipitation  
Precipitation 0.00 in - - ()
Sea Level Pressure  
Sea Level Pressure 29.95 in    
Wind  
Wind Speed 2 mph (SSE)    
Max Wind Speed 7 mph    
Max Gust Speed -    
Visibility 6 miles    
Events Fog    
Averages and records for this station are not official NWS values.
T = Trace of Precipitation, MM = Missing Value Source: NWS Daily Summary

Daily Weather History Graph

Daily Weather History Graph

Search for Another Location

Airport or City:

Astronomy

Sep. 15, 2019 Rise Set
Actual Time 6:52 AM CDT 7:24 PM CDT
Civil Twilight 6:22 AM CDT 7:54 PM CDT
Nautical Twilight 5:48 AM CDT 8:29 PM CDT
Astronomical Twilight 5:11 AM CDT 9:04 PM CDT
Moon 8:30 PM CDT (9/15) 8:04 AM CDT (9/15)
Length of Visible Light 13h 31m
Length of Day
12h 32m
Full, 98% of the Moon is Illuminated
Sep 15
Full
Sep 21
Last Quarter
Sep 28
New
Oct 5
First Quarter
Oct 13
Full

Hourly Weather History & Observations

Time (CDT) Temp. Heat Index Dew Point Humidity Pressure Visibility Wind Dir Wind Speed Gust Speed Precip Events Conditions
12:53 AM 63.0 °F - 61.0 °F 93% 29.94 in 9.0 mi Calm Calm - N/A   Scattered Clouds
1:48 AM 60.8 °F - 60.8 °F 100% 29.94 in 1.8 mi Calm Calm - N/A   Scattered Clouds
1:53 AM 61.0 °F - 59.0 °F 93% 29.94 in 1.5 mi Calm Calm - N/A   Mostly Cloudy
1:57 AM 61.0 °F - 60.1 °F 97% 29.94 in 4.0 mi Calm Calm - N/A   Mostly Cloudy
2:31 AM 62.1 °F - 60.1 °F 93% 29.93 in 2.5 mi Calm Calm - N/A   Scattered Clouds
2:38 AM 62.1 °F - 60.1 °F 93% 29.93 in 1.0 mi Calm Calm - N/A   Partly Cloudy
2:40 AM 61.0 °F - 60.1 °F 97% 29.93 in 0.8 mi Calm Calm - N/A   Partly Cloudy
3:02 AM 61.0 °F - 59.0 °F 93% 29.93 in 2.0 mi SE 3.5 mph - N/A   Clear
3:10 AM 61.0 °F - 59.0 °F 93% 29.93 in 6.0 mi Calm Calm - N/A   Clear
3:24 AM 62.1 °F - 60.1 °F 93% 29.93 in 1.8 mi SSE 3.5 mph - N/A   Partly Cloudy
3:26 AM 62.1 °F - 60.1 °F 93% 29.93 in 0.8 mi SSE 3.5 mph - N/A   Mist
3:38 AM 62.1 °F - 60.1 °F 93% 29.93 in 0.2 mi Calm Calm - N/A Fog Fog
3:53 AM 60.1 °F - 57.9 °F 93% 29.93 in 0.2 mi Calm Calm - N/A Fog Fog
4:03 AM 61.0 °F - 59.0 °F 93% 29.93 in 0.5 mi Calm Calm - N/A Fog Fog
4:53 AM 60.1 °F - 57.9 °F 93% 29.93 in 0.2 mi Calm Calm - N/A Fog Fog
5:02 AM 59.0 °F - 57.0 °F 93% 29.93 in 0.5 mi Calm Calm - N/A Fog Fog
5:09 AM 59.0 °F - 57.9 °F 96% 29.93 in 0.2 mi ESE 3.5 mph - N/A Fog Fog
5:15 AM 60.1 °F - 57.9 °F 93% 29.93 in 1.0 mi SE 3.5 mph - N/A   Clear
5:19 AM 60.1 °F - 57.9 °F 93% 29.93 in 3.0 mi SE 4.6 mph - N/A   Clear
5:21 AM 60.1 °F - 59.0 °F 96% 29.93 in 2.5 mi SE 4.6 mph - N/A   Partly Cloudy
5:23 AM 60.1 °F - 59.0 °F 96% 29.93 in 1.0 mi SE 3.5 mph - N/A   Mist
5:27 AM 60.1 °F - 59.0 °F 96% 29.93 in 0.2 mi Calm Calm - N/A Fog Fog
5:53 AM 59.0 °F - 57.0 °F 93% 29.93 in 10.0 mi Calm Calm - N/A   Haze
6:53 AM 57.9 °F - 55.9 °F 93% 29.94 in 10.0 mi Calm Calm - N/A   Haze
7:53 AM 60.1 °F - 57.9 °F 93% 29.94 in 10.0 mi Calm Calm - N/A   Haze
8:53 AM 64.9 °F - 62.1 °F 90% 29.96 in 10.0 mi Calm Calm - N/A   Clear
9:53 AM 66.9 °F - 63.0 °F 87% 29.98 in 10.0 mi SSE 3.5 mph - N/A   Clear
10:53 AM 72.0 °F - 64.9 °F 78% 29.98 in 10.0 mi Variable 3.5 mph - N/A   Clear
11:53 AM 75.9 °F - 66.9 °F 74% 29.98 in 10.0 mi ESE 4.6 mph - N/A   Partly Cloudy
12:53 PM 77.0 °F - 66.9 °F 71% 29.99 in 10.0 mi SE 5.8 mph - N/A   Scattered Clouds
1:53 PM 79.0 °F - 66.0 °F 64% 29.98 in 10.0 mi Variable 3.5 mph - N/A   Clear
2:53 PM 81.0 °F 82.7 °F 64.9 °F 58% 29.97 in 10.0 mi SSW 5.8 mph - N/A   Clear
3:53 PM 82.0 °F 83.4 °F 64.0 °F 54% 29.96 in 10.0 mi SW 3.5 mph - N/A   Clear
4:53 PM 81.0 °F 82.5 °F 64.0 °F 56% 29.96 in 10.0 mi South 6.9 mph - N/A   Clear
5:53 PM 80.1 °F 81.7 °F 64.0 °F 58% 29.96 in 10.0 mi SW 5.8 mph - N/A   Clear
6:53 PM 77.0 °F - 64.0 °F 64% 29.97 in 10.0 mi South 5.8 mph - N/A   Clear
7:53 PM 73.9 °F - 64.0 °F 71% 29.97 in 10.0 mi South 4.6 mph - N/A   Clear
9:53 PM 69.1 °F - 64.0 °F 84% 29.99 in 10.0 mi SSE 4.6 mph - N/A   Clear
10:53 PM 69.1 °F - 64.0 °F 84% 29.99 in 10.0 mi SSE 3.5 mph - N/A   Clear
11:53 PM 66.9 °F - 62.1 °F 84% 29.98 in 10.0 mi SSE 3.5 mph - N/A   Clear